Capri, Italy

10:45 AM CET on November 20, 2017 (GMT +0100)
Capri

Weather History for LIQC - August, 2014

Change the Weather History Date:

Monday, August 18, 2014

  Actual Average (LIRN) Record (LIRN)
Temperature  
Mean Temperature 78 °F -  
Max Temperature 88 °F 86 °F 98 °F (2003)
Min Temperature 67 °F 67 °F 63 °F (2014)
Cooling Degree Days 12    
Growing Degree Days 28 (Base 50)    
Moisture  
Dew Point 68 °F    
Average Humidity 76    
Maximum Humidity 100    
Minimum Humidity 47    
Precipitation  
Precipitation 0.00 in - - ()
Sea Level Pressure  
Sea Level Pressure 30.02 in    
Wind  
Wind Speed 2 mph ()    
Max Wind Speed 7 mph    
Max Gust Speed -    
Visibility 12.0 miles    
Events      
Averages and records for this station are not official NWS values.
T = Trace of Precipitation, MM = Missing Value Source: Averaged Metar Reports

Daily Weather History Graph

Daily Weather History Graph

Search for Another Location

Airport or City:

Trip Planner

Search our weather history database for the weather conditions in past years. The results will help you decide how hot, cold, wet, or windy it might be!

Date:

Astronomy

Aug. 18, 2014 Rise Set
Actual Time 6:16 AM CEST 7:56 PM CEST
Civil Twilight 5:47 AM CEST 8:25 PM CEST
Nautical Twilight 5:12 AM CEST 9:01 PM CEST
Astronomical Twilight 4:34 AM CEST 9:38 PM CEST
Moon 12:10 AM CEST (8/18) 2:44 PM CEST (8/18)
Length of Visible Light 14h 38m
Length of Day
13h 40m
Last Quarter, 41% of the Moon is Illuminated
Aug 18
Last Quarter
Aug 25
New
Sep 2
First Quarter
Sep 9
Full
Sep 16
Last Quarter

Hourly Weather History & Observations

Time (CEST) Temp. Heat Index Dew Point Humidity Pressure Visibility Wind Dir Wind Speed Gust Speed Precip Events Conditions
1:55 AM 71.6 °F - 68.0 °F 88% 30.01 in - North - - N/A   Clear
2:00 AM 72 °F - 67 °F 81% 30.00 in 12 mi 1.2 mph - -  
2:55 AM 71.6 °F - 68.0 °F 88% 30.01 in - North - - N/A   Clear
4:55 AM 68.0 °F - 66.2 °F 94% 30.01 in - North - - N/A   Clear
5:00 AM 69 °F - 66 °F 89% 30.01 in 12 mi Calm Calm - -  
5:55 AM 68.0 °F - 66.2 °F 94% 30.01 in - North - - N/A   Clear
6:55 AM 68.0 °F - 68.0 °F 100% 30.01 in - North - - N/A   Clear
8:00 AM 69 °F - 66 °F 89% 30.00 in 12 mi Calm Calm - -  
8:55 AM 71.6 °F - 66.2 °F 83% 30.01 in - North - - N/A   Clear
9:55 AM 73.4 °F - 68.0 °F 83% 30.01 in - North - - N/A   Clear
10:55 AM 73.4 °F - 68.0 °F 83% 30.04 in - North - - N/A   Clear
11:00 AM 73 °F - 68 °F 78% 30.02 in 12 mi 4.6 mph - -  
11:55 AM 75.2 °F - 68.0 °F 78% 30.04 in - North - - N/A   Clear
12:55 PM 77.0 °F - 68.0 °F 74% 30.04 in - North - - N/A   Clear
1:55 PM 77.0 °F - 68.0 °F 74% 30.06 in - North - - N/A   Clear
2:00 PM 77 °F - 68 °F 66% 30.05 in 12 mi 5.8 mph - -  
2:55 PM 80.6 °F 83.2 °F 68.0 °F 65% 30.06 in - North - - N/A   Clear
3:55 PM 82.4 °F 85.4 °F 68.0 °F 62% 30.06 in - North - - N/A   Clear
4:55 PM 86.0 °F 90.4 °F 69.8 °F 58% 30.04 in - North - - N/A   Clear
5:00 PM 86 °F - 70 °F 51% 30.01 in 12 mi 6.9 mph - -  
5:55 PM 87.8 °F 92.6 °F 69.8 °F 55% 30.04 in - North - - N/A   Clear
6:55 PM 87.8 °F 91.4 °F 68.0 °F 52% 30.04 in - North - - N/A   Clear
7:55 PM 86.0 °F 89.4 °F 68.0 °F 55% 30.01 in - North - - N/A   Clear
8:00 PM 86 °F - 69 °F 47% 29.99 in 12 mi 4.6 mph - -  
8:55 PM 82.4 °F 87.2 °F 71.6 °F 70% 30.01 in - North - - N/A   Clear
9:55 PM 78.8 °F - 73.4 °F 83% 30.01 in - North - - N/A   Clear
10:55 PM 71.6 °F - 68.0 °F 88% 30.04 in - North - - N/A   Clear
11:00 PM 72 °F - 68 °F 82% 30.02 in 12 mi 3.5 mph - -  
11:55 PM 71.6 °F - 69.8 °F 94% 30.04 in - North - - N/A   Clear